Location: Heretsried
(48.4596°N, 10.7356°E)
Time: 23:20:55
(UTC+00:00)

Daily predictions for brighter satellites

Satellite Brightness Start Highest point End
(mag) Time Altitude Azimuth Time Altitude Azimuth Time Altitude Azimuth
Meteor 1-10 Rocket 4.3 19:32:41 10° S 19:38:15 89° ESE 19:43:55 10° NNE
Cosmos 1933 Rocket 3.9 19:36:10 10° N 19:40:35 54° ENE 19:44:57 10° SSE
EXPRESS MD2 4.1 19:35:35 10° WNW 19:42:25 58° SSW 19:45:55 10° SE
CZ-4B R/B 1.2 19:41:34 10° NNE 19:44:46 67° ESE 19:47:53 10° S
Cosmos 1515 3.7 19:41:09 10° S 19:44:53 64° E 19:48:37 10° NNE
SPOT 1/Viking Rocket 3.6 19:41:18 10° SSE 19:46:28 79° ENE 19:51:39 10° NNW
Helios 1A Rocket 4.0 19:43:27 10° SE 19:46:57 30° ENE 19:50:29 10° N
Meteor 1-27 Rocket 3.8 19:41:54 10° S 19:47:38 70° E 19:53:31 10° NNE
Cosmos 1633 Rocket 4.2 19:46:40 10° NNW 19:50:50 44° W 19:54:58 10° SSW
Cosmos 2219 3.8 19:46:41 10° NW 19:52:10 54° WSW 19:57:37 10° S
Cosmos 2034 Rocket 4.4 19:46:37 10° SSE 19:52:35 48° E 19:58:39 10° NNE
SJ 16-02 2.1 19:50:33 10° SSE 19:54:25 32° ESE 19:58:19 10° NE
Cosmos 2278 4.5 19:49:57 10° SSE 19:54:53 32° ESE 19:59:51 10° NE
Cosmos 1340 2.6 19:51:31 10° S 19:55:13 72° E 19:58:58 10° NNE
Cosmos 2082 3.8 19:53:25 10° NNW 19:59:06 87° WSW 20:04:42 10° SSE
Meteor 1-11 Rocket 4.3 19:54:02 10° NNW 19:59:57 66° W 20:05:49 10° S
Cosmos 482 Debris 3.7 19:59:00 10° WNW 20:01:38 84° NNE 20:05:39 10° ESE
Cosmos 2263 Rocket 2.5 19:56:42 10° NNW 20:02:14 55° ENE 20:07:29 11° SE
Cosmos 1470 Rocket 4.2 19:58:00 10° NNW 20:02:15 56° W 20:06:28 10° S
Cosmos 1743 3.0 20:01:45 10° NNW 20:05:31 68° W 20:09:15 10° S
Ariane Rocket 3.2 20:01:18 10° S 20:06:22 76° WSW 20:11:29 10° NNW
IRAS Rocket 4.3 20:05:44 10° NNE 20:11:23 88° WNW 20:17:02 10° SSW
SPOT 5 3.4 20:06:30 11° SE 20:11:28 51° ENE 20:16:24 10° N
BREEZE-M DEB (TANK) 1.8 20:09:13 10° W 20:11:53 74° N 20:14:04 10° ENE
Terra 2.7 20:09:04 11° SE 20:13:07 36° ENE 20:17:27 10° N
Resurs 01 Rocket 2.6 20:10:58 10° S 20:15:11 45° W 20:19:26 10° NNW
Cosmos 1346 Rocket 4.3 20:15:00 13° SE 20:17:19 21° E 20:20:20 10° NE
Aureole 1 Rocket 2.9 20:14:15 10° SW 20:17:21 55° WNW 20:20:18 10° NNE
Cosmos 1515 Rocket 4.1 20:13:42 10° SSW 20:18:01 61° WNW 20:22:24 10° N
Cosmos 1809 Rocket 4.5 20:12:03 10° N 20:18:14 88° E 20:24:24 10° S
Cosmos 2227 Rocket 3.7 20:15:02 10° NW 20:19:56 30° WSW 20:24:48 10° SSW
Cosmos 921 Rocket 3.4 20:16:48 10° NNW 20:21:19 68° WSW 20:25:38 11° S
Cosmos 1980 Rocket 2.2 20:24:37 10° SSW 20:30:15 88° ESE 20:35:59 10° NNE
CARTOSAT-1 3.9 20:26:18 10° S 20:30:35 65° WSW 20:34:54 10° NNW
Cosmos 1869 Rocket 3.6 20:26:08 10° N 20:30:39 85° E 20:34:33 14° S
SL-24 R/B - RUBIN 2 3.8 20:26:46 10° NW 20:31:07 61° NE 20:34:41 16° SE
Cosmos 2228 Rocket 3.2 20:29:07 10° S 20:33:38 66° E 20:38:10 10° NNE
Cosmos 1464 Rocket 4.4 20:28:42 10° SSW 20:34:50 64° WNW 20:40:58 10° N
Cosmos 1378 3.3 20:34:31 16° SSE 20:37:11 49° E 20:40:45 10° NNE
Cosmos 2344 3.5 20:31:09 10° SW 20:38:38 89° SE 20:46:27 10° NE
Cosmos 2322 Rocket 3.4 20:36:17 16° SE 20:39:02 23° ESE 20:43:21 10° NE
ISS -3.8 20:36:03 10° WNW 20:39:24 68° SSW 20:41:27 21° SE
Cosmos 1777 Rocket 4.0 20:34:20 10° S 20:39:28 65° ESE 20:44:41 10° NNE
Cosmos 2369 4.0 20:34:21 10° SW 20:39:59 71° WNW 20:45:41 10° NNE
Spot 2 Rocket 3.5 20:35:42 14° SSE 20:40:01 89° E 20:45:07 10° NNW
Cosmos 1354 Rocket 4.1 20:35:26 10° SSW 20:40:43 82° WNW 20:46:04 10° NNE
Cosmos 773 Rocket 4.2 20:35:50 10° NNW 20:41:02 67° WSW 20:45:19 15° S
SPOT 3 Rocket 4.0 20:36:12 10° S 20:41:16 59° WSW 20:46:23 10° NNW
Cosmos 1844 Rocket 4.0 20:36:43 10° NNW 20:41:36 30° NE 20:46:18 11° ESE
ATLAS 2AS CENTAUR R/B 2.9 20:35:33 10° SSW 20:43:19 73° SE 20:50:51 10° NE
Okean 1 3.6 20:41:00 10° SSW 20:44:59 68° WNW 20:49:00 10° N
Meteor 2-4 Rocket 3.9 20:40:22 13° S 20:45:27 56° E 20:50:58 10° NNE
Cosmos 1092 Rocket 4.0 20:40:43 10° N 20:46:57 85° E 20:52:05 15° S
Meteor 1-19 Rocket 4.2 20:41:41 10° SSW 20:47:07 80° W 20:52:34 10° N
Nadezhda 4 Rocket 4.5 20:41:35 10° NNW 20:47:41 58° W 20:53:40 10° S
RESURS DK-1 2.3 20:44:58 10° SSW 20:49:05 84° ESE 20:53:13 10° NNE
Cosmos 1697 Rocket 4.2 20:44:06 10° WSW 20:49:24 40° NW 20:54:44 10° NNE
SL-4 R/B 4.2 20:46:57 10° W 20:49:46 16° SW 20:52:09 11° SSW
USA 267 4.3 20:47:28 10° E 20:53:38 45° N 20:59:47 10° WNW
Cosmos 1634 Rocket 4.0 20:49:58 13° S 20:55:28 68° E 21:01:37 10° NNE
ARIANE 5 R/B 2.7 20:53:39 21° SSE 20:56:35 71° ENE 21:01:05 10° N
ATLAS CENTAUR R/B 3.5 20:53:04 10° NNW 20:57:13 27° NNE 21:01:16 10° E
Cosmos 1707 Rocket 3.6 20:54:13 19° S 20:57:20 63° E 21:01:42 10° NNE
Cosmos 44 Rocket 3.2 20:53:50 10° NW 20:58:33 76° SW 21:01:28 23° SSE
Cosmos 2227 4.3 20:58:18 10° NNW 21:04:05 81° WSW 21:07:59 22° SSE
Cosmos 1733 4.2 21:01:33 10° N 21:05:00 32° ENE 21:06:32 23° ESE
Cosmos 158 Rocket 4.1 21:00:47 10° NNW 21:05:53 69° WSW 21:09:24 21° S
ATLAS 3B R/B 2.9 21:00:23 10° NW 21:07:46 84° NE 21:13:24 20° SE
NOSS 2-1 (E) 3.0 21:08:10 29° S 21:09:21 44° SE 21:12:27 10° NE
Cosmos 1975 3.2 21:07:00 10° NNW 21:11:01 62° W 21:13:33 21° S
Cosmos 2026 Rocket 4.1 21:06:01 10° NNW 21:12:11 75° W 21:17:00 18° S
USA 81 4.0 21:09:01 18° S 21:12:59 84° E 21:18:18 10° N
ERS-1 Rocket 3.5 21:12:32 17° S 21:16:16 53° W 21:21:13 10° NNW
SL-16 R/B 2.2 21:13:28 15° S 21:18:01 61° ESE 21:23:38 10° NNE
Meteor 1-4 Rocket 2.9 21:15:03 10° N 21:18:26 47° ENE 21:19:36 33° SE
CZ-4C R/B 4.0 21:13:12 10° NW 21:19:25 38° NNE 21:26:46 10° E
Cosmos 1538 Rocket 4.1 21:16:02 10° NNW 21:21:16 72° WSW 21:24:18 25° S
CZ-2C R/B 4.2 21:18:33 10° N 21:23:17 64° WNW 21:27:47 11° SSW
GENESIS II 4.0 21:20:47 11° SW 21:24:27 82° SE 21:28:24 10° NE
Meteor 2-10 4.5 21:20:01 10° N 21:25:10 50° ENE 21:27:49 26° SE
Cosmos 1733 Rocket 3.1 21:20:52 10° NNW 21:25:21 76° W 21:27:44 27° S
Geosat 4.0 21:28:35 28° SSE 21:31:21 89° WSW 21:36:25 10° NNW
OE (NEXTSAT) 4.2 21:28:18 10° WSW 21:31:34 56° S 21:32:08 47° SE
SAR-Lupe-4 3.4 21:28:19 10° NNE 21:31:56 81° ESE 21:33:22 35° S
EP 1 4.5 21:29:19 15° SW 21:32:00 86° NW 21:34:44 10° NE
SJ 16-02 3.2 21:29:04 10° WSW 21:32:58 31° WNW 21:36:52 10° N
Cosmos 1356 3.4 21:35:10 47° SE 21:35:44 55° E 21:38:59 10° NNE
Cosmos 1908 Rocket 3.9 21:32:41 10° N 21:36:57 53° ENE 21:38:37 32° SE
Cosmos 923 Rocket 4.1 21:34:04 10° NNW 21:39:26 77° ENE 21:42:10 30° SSE
Cosmos 1862 Rocket 3.7 21:37:31 25° SSW 21:40:07 77° W 21:44:39 10° N
Cosmos 2360 Rocket 2.5 21:40:43 29° SSE 21:43:08 46° ESE 21:48:30 10° NE
Cosmos 1937 Rocket 4.3 21:42:39 28° SE 21:44:15 35° ESE 21:49:00 10° NE
Cosmos 1726 2.8 21:40:45 10° N 21:44:15 40° ENE 21:45:09 33° ESE
Cosmos 2263 Rocket 3.7 21:41:13 10° NW 21:45:48 27° WSW 21:49:11 15° SSW
ALOS 2 4.0 21:44:37 20° ESE 21:46:37 28° ENE 21:50:22 10° N
Meteor 1-13 Rocket 4.2 21:44:29 28° S 21:47:28 70° E 21:52:59 10° NNE
Cosmos 2266 Rocket 4.1 21:41:48 10° N 21:48:03 68° ENE 21:51:20 29° SSE
NOSS 2-1 (C) 3.3 21:46:44 11° SW 21:49:45 57° NW 21:53:00 10° NE
Terra 3.2 21:47:57 17° SSW 21:50:54 31° W 21:55:09 10° NNW
Cosmos 1441 Rocket 3.3 21:51:04 33° SSW 21:52:35 67° WNW 21:56:18 10° N
Cosmos 1346 Rocket 4.1 21:50:23 15° SW 21:53:22 37° WNW 21:57:07 10° N
Cosmos 2279 Rocket 4.2 21:53:29 19° SSW 21:58:04 68° WNW 22:04:18 10° N
USA 215 3.5 21:53:35 10° ENE 21:59:51 46° SE 22:03:42 23° SSW
Cosmos 2112 Rocket 4.1 21:54:40 10° NNW 22:00:01 75° ENE 22:02:27 33° SE
NOSS 2-1 (D) 3.8 21:57:09 10° WSW 22:00:14 45° NW 22:03:26 10° NNE
Cosmos 1680 Rocket 3.5 21:55:45 10° NNW 22:01:06 86° ENE 22:03:26 35° SSE
Cosmos 990 Rocket 3.9 21:57:54 24° SSW 22:01:06 89° WNW 22:06:24 10° NNE
Cosmos 2278 Rocket 4.2 21:56:54 10° N 22:01:15 22° NE 22:05:35 10° E
Cosmos 1842 4.0 22:03:47 35° ESE 22:04:19 37° E 22:07:55 10° NNE
Meteor 1-12 Rocket 4.3 22:00:03 10° NNW 22:06:02 83° W 22:08:53 32° S
Cosmos 1066 Rocket 4.4 22:05:06 24° SSW 22:08:44 72° WNW 22:14:24 10° N
ADEOS Rocket 3.8 22:05:31 21° ESE 22:08:49 39° ENE 22:14:25 10° N
Spot 4 3.9 22:07:13 37° SSE 22:09:07 72° ENE 22:13:55 10° N
Cosmos 1818 3.5 22:04:06 10° NW 22:09:36 88° NE 22:12:08 33° SE
Iridium 4 Rocket 3.2 22:07:17 10° N 22:11:53 86° E 22:13:44 39° S
Cosmos 1898 Rocket 3.5 22:11:50 31° SSW 22:14:27 82° ESE 22:19:48 10° NNE
ISS -1.2 22:13:50 10° WSW 22:14:21 12° WSW 22:14:21 12° WSW
Cosmos 1900 4.4 22:15:19 35° S 22:17:19 65° ESE 22:22:26 10° NE
Okean 1-7 3.0 22:17:26 40° SSW 22:18:57 81° W 22:23:21 10° N
Cosmos 2322 Rocket 2.5 22:18:02 15° SW 22:22:36 64° WNW 22:28:12 10° NNE
Cosmos 1844 Rocket 2.9 22:20:21 10° NW 22:25:49 57° WSW 22:27:57 35° S
Okean 3 3.4 22:25:02 47° S 22:26:12 88° WNW 22:30:29 10° N
Cosmos 2322 4.2 22:25:29 34° SSE 22:27:09 42° ESE 22:32:32 10° NE
Cosmos 2333 Rocket 2.3 22:25:18 36° S 22:27:21 57° ESE 22:32:55 10° NE
H-2A R/B 3.4 22:27:25 10° NNE 22:31:31 69° ESE 22:32:20 52° SSE
Cosmos 1461 3.5 22:28:02 10° NNW 22:32:06 53° NE 22:33:55 30° ESE
BREEZE-M DEB (TANK) 3.9 22:30:21 10° W 22:31:52 23° SW 22:31:52 23° SW
ATLAS 2AS CENTAUR R/B 4.2 22:27:36 10° WSW 22:34:52 41° NNW 22:41:51 10° NE
USA 229 DEB 4.5 22:28:13 10° NW 22:35:19 55° NE 22:42:55 10° ESE
USA 229 4.5 22:28:19 10° NW 22:35:25 55° NE 22:42:59 10° ESE
USA 267 3.4 22:29:45 10° ESE 22:36:14 78° NNE 22:42:47 10° NW
ATLAS CENTAUR R/B 1.6 22:31:38 10° NW 22:36:31 73° SW 22:37:50 46° SSE
Meteor 1-23 Rocket 4.3 22:34:01 33° SSW 22:36:50 83° WNW 22:42:42 10° N
Cosmos 1766 4.2 22:38:54 10° NNW 22:42:33 37° W 22:43:23 33° WSW
Cosmos 2219 Rocket 2.2 22:44:47 39° S 22:46:42 62° ESE 22:52:13 10° NNE
Nadezhda 2 Rocket 4.5 22:41:56 10° N 22:48:07 73° E 22:50:51 35° SSE
Cosmos 1844 4.3 22:43:58 10° NW 22:49:29 45° WSW 22:51:27 33° SSW
Cosmos 1703 Rocket 4.4 22:48:15 28° SW 22:50:04 43° WNW 22:54:19 10° N
Cosmos 2221 Rocket 4.3 22:51:06 35° ESE 22:51:59 39° E 22:56:07 10° NNE
Cosmos 372 Rocket 3.9 22:51:17 39° SSW 22:53:16 89° WNW 22:58:29 10° NNE
ATLAS 3B R/B 4.1 22:51:54 10° WNW 22:57:51 27° WSW 23:00:38 22° SW
Cosmos 1707 2.6 23:00:36 66° S 23:01:06 84° E 23:04:59 10° N
NOSS 3-1 (A) 4.1 22:54:45 10° NW 23:02:06 83° NE 23:08:57 18° SE
SL-16 R/B 4.0 22:57:40 10° WSW 23:02:33 29° NW 23:07:27 10° NNE
Cosmos 1782 Rocket 4.5 22:59:46 10° NNW 23:03:46 37° W 23:04:50 32° WSW
ERS-2 2.2 23:02:46 10° N 23:06:22 66° WNW 23:06:52 57° WSW
Okean 2 3.4 23:06:39 54° SE 23:07:17 64° E 23:11:21 10° NNE
CZ-4C R/B 2.9 23:01:32 10° NW 23:08:44 84° SW 23:14:17 24° SE
NOSS 3-1 (C) 4.1 23:02:01 10° NW 23:09:23 65° SW 23:14:03 29° SSE
USA 290 2.9 23:10:46 45° ENE 23:10:46 45° ENE 23:13:27 10° NNE
Cosmos 1238 Rocket 2.7 23:09:12 10° N 23:11:57 50° ENE 23:11:57 50° ENE
Gblst 52 Del rocket 4.3 23:09:26 10° WSW 23:15:47 82° NNW 23:21:29 10° ENE
Cosmos 2237 Rocket 3.3 23:14:56 26° SE 23:16:31 30° ESE 23:21:24 10° NE
KORONAS-FOTON 3.6 23:16:49 68° SSE 23:17:13 78° E 23:21:03 10° NNE
Cosmos 1470 3.6 23:15:02 10° NNW 23:18:36 36° W 23:19:01 35° WSW
Cosmos 1726 4.2 23:16:38 10° NW 23:18:54 16° W 23:19:26 15° W
Cosmos 1300 Rocket 4.1 23:15:48 10° NNW 23:19:58 46° W 23:20:51 40° SW
COSMOS 2428 2.6 23:17:53 39° SSW 23:20:06 78° ESE 23:25:48 10° NNE
NOSS 2-2 (D) 4.3 23:15:27 10° NW 23:20:19 75° NE 23:25:35 17° SE
Cosmos 1745 Rocket 4.2 23:15:44 10° N 23:21:57 65° ENE 23:25:01 31° SSE
PSLV R/B 3.7 23:18:14 10° NNE 23:22:37 66° ESE 23:23:41 48° SSE
ALOS 2 3.5 23:22:00 32° WSW 23:22:50 35° W 23:26:53 10° NNW
Cosmos 2151 Rocket 3.5 23:18:28 10° N 23:22:54 89° E 23:23:57 52° S
Resurs 1-4 Rocket 4.4 23:21:09 10° ENE 23:23:01 12° E 23:24:53 10° ESE
Cosmos 1242 Rocket 2.6 23:22:27 10° NNW 23:26:00 58° W 23:26:06 58° WSW
USA 305 3.8 23:26:45 33° ESE 23:26:45 33° ESE 23:29:53 10° ENE
Okean 2 Rocket 3.1 23:22:27 10° NNW 23:26:59 74° W 23:28:05 50° SSW
Cosmos 2360 Rocket 3.5 23:22:24 11° WSW 23:27:16 35° NW 23:32:28 10° NNE
Cosmos 405 Rocket 2.9 23:28:20 52° ESE 23:28:41 55° E 23:32:24 10° NNE
Cosmos 1943 Rocket 4.0 23:25:13 10° NNW 23:30:03 28° NE 23:34:52 10° ESE
In-Cosmos 22 4.2 23:29:31 37° SSW 23:31:46 73° WNW 23:37:15 10° N
Cosmos 1437 Rocket 2.9 23:29:11 10° N 23:32:55 61° ENE 23:33:33 51° ESE
Nimbus 7 Rocket 4.3 23:27:46 10° NNE 23:33:42 85° ESE 23:36:12 37° SSW
Cosmos 1908 3.0 23:30:36 10° NNW 23:34:24 77° W 23:34:48 67° SSW
Cosmos 1867 3.5 23:33:43 35° SW 23:36:06 90° WSW 23:41:38 10° NE
Cosmos 2298 Rocket 4.3 23:34:33 39° SSE 23:36:13 56° ESE 23:41:25 10° NNE
Meteor 1-21 4.5 23:34:35 33° SW 23:37:11 64° WNW 23:42:59 10° N
Cosmos 1626 2.0 23:37:35 66° SW 23:37:58 75° W 23:41:39 10° N
GP-B 4.4 23:36:19 10° NNE 23:40:18 32° E 23:42:03 24° SE
USA 215 3.5 23:36:34 10° NE 23:43:06 72° NNW 23:49:38 10° WSW
Cosmos 1953 2.3 23:39:53 10° N 23:43:54 74° E 23:44:46 52° SSE
Cosmos 2278 Rocket 2.1 23:40:23 10° NNW 23:46:06 87° WSW 23:48:51 32° SSE
Cosmos 468 4.5 23:42:06 10° NNW 23:47:18 68° WSW 23:49:03 41° S
Cosmos 1674 3.3 23:50:45 39° WSW 23:51:22 43° WNW 23:55:00 10° N
ADEOS Rocket 3.7 23:52:27 29° SW 23:54:24 37° W 23:59:57 10° NNW
